STARLINK-1100 (44943 NORAD) Tracking and Keplerian Element Data

This shows tracking and keplerian element data for the satellite.

Feedback or suggestion? Click here.




ElementValue
Catalog44943
NameSTARLINK-1100
Epoch Orbit723
Epoch Day52.91667824
Epoch Year2020
RAAN168.9141
Inclination52.9958
Eccentricity0.000156
Argument of Perigee13.016
Mean Anonmoly0.2313
Mean Motion15.73206936
Decay Rate0.00013483
L11 44943U 20001AF 20052.91667824 .00013483 00000-0 10028-3 0 9992
L22 44943 52.9958 168.9141 0001560 13.0160 0.2313 15.73206936 7230

Live tracking and technical data element details for STARLINK-1100 (NORAD 44943). STARLINK-1100 can be tracked NOW for your location showing map with azimuth and elevation plus other details from your city location.

Track the satellite on the map from your city or location and see movement details for azimuth, elevation, latitude, longitude, range, height, and movement on the map or in text.







IsCatalogInMostPopularTable: catalog: 44943, numindb: 16
Update: records affected: 1



GetName: 44943 STARLINK-1100

Hit Count: updated at: Wed, 26 Feb 2020 16:18:42 GMT